ACA113 CYWG-CYYZ

Flight info

Callsign ACA113
Flight time 1h 55m
Altitude 37000
Route RORMA DCT AXOMA DCT SIDPO DCT DEGVA DCT AGLIN DCT OTNIK BOXUM7
Aircraft B77W/H-SDE1E2E3FGHIJ2J3J4J5M1RWXY/LB1D1

Departure

Time 2026-05-05 03:00
Airport Winnipeg / James Armstrong Richardson International Airport (CYWG)

Arrival

Time 2026-05-05 04:55
Airport Toronto Pearson International Airport (CYYZ)
Time Latitude Longitude Altitude Speed Heading
2026-05-05 02:29 49.90686 -97.22416 788 ft 0 kts 180°
2026-05-05 02:32 49.90687 -97.22416 788 ft 0 kts 180°
2026-05-05 02:47 49.90690 -97.22416 788 ft 2 kts 179°
2026-05-05 02:47 49.90716 -97.22417 788 ft 4 kts 179°
2026-05-05 02:48 49.90742 -97.22416 788 ft 4 kts 199°
2026-05-05 02:48 49.90760 -97.22394 788 ft 4 kts 250°
2026-05-05 02:48 49.90764 -97.22358 788 ft 1 kts 272°
2026-05-05 02:48 49.90764 -97.22356 788 ft 3 kts 272°
2026-05-05 02:51 49.90764 -97.22360 788 ft 3 kts 272°
2026-05-05 02:51 49.90765 -97.22442 788 ft 9 kts 269°
2026-05-05 02:51 49.90761 -97.22542 788 ft 9 kts 265°
2026-05-05 02:51 49.90750 -97.22642 788 ft 9 kts 258°
2026-05-05 02:52 49.90736 -97.22742 788 ft 9 kts 258°
2026-05-05 02:52 49.90715 -97.22838 788 ft 9 kts 240°
2026-05-05 02:52 49.90665 -97.22904 788 ft 10 kts 205°
2026-05-05 02:52 49.90592 -97.22911 788 ft 12 kts 168°
2026-05-05 02:53 49.90512 -97.22882 788 ft 12 kts 173°
2026-05-05 02:53 49.90431 -97.22903 789 ft 12 kts 195°
2026-05-05 02:53 49.90353 -97.22943 790 ft 12 kts 199°
2026-05-05 02:53 49.90275 -97.22984 790 ft 12 kts 199°
2026-05-05 02:54 49.90202 -97.23041 791 ft 12 kts 226°
2026-05-05 02:54 49.90161 -97.23152 792 ft 12 kts 224°
2026-05-05 02:54 49.90083 -97.23138 793 ft 12 kts 147°
2026-05-05 02:54 49.90006 -97.23040 791 ft 16 kts 139°
2026-05-05 02:55 49.89922 -97.22925 790 ft 16 kts 139°
2026-05-05 02:55 49.89837 -97.22807 789 ft 16 kts 139°
2026-05-05 02:55 49.89754 -97.22687 791 ft 16 kts 134°
2026-05-05 02:55 49.89661 -97.22600 791 ft 16 kts 186°
2026-05-05 02:56 49.89575 -97.22712 791 ft 16 kts 228°
2026-05-05 02:56 49.89499 -97.22852 788 ft 18 kts 242°
2026-05-05 02:56 49.89491 -97.23044 787 ft 18 kts 277°
2026-05-05 02:56 49.89504 -97.23216 785 ft 14 kts 277°
2026-05-05 02:57 49.89512 -97.23316 785 ft 14 kts 277°
2026-05-05 02:57 49.89527 -97.23517 786 ft 14 kts 277°
2026-05-05 02:57 49.89539 -97.23669 788 ft 14 kts 277°
2026-05-05 02:57 49.89550 -97.23812 791 ft 11 kts 277°
2026-05-05 02:58 49.89560 -97.23935 792 ft 11 kts 276°
2026-05-05 02:58 49.89562 -97.23968 792 ft 0 kts 276°
2026-05-05 02:58 49.89562 -97.23972 792 ft 1 kts 276°
2026-05-05 02:58 49.89563 -97.23982 792 ft 1 kts 276°
2026-05-05 02:59 49.89569 -97.24061 793 ft 14 kts 276°
2026-05-05 02:59 49.89639 -97.24155 793 ft 10 kts
2026-05-05 02:59 49.89675 -97.24151 794 ft 18 kts
2026-05-05 02:59 49.90087 -97.24057 787 ft 101 kts
2026-05-05 03:00 49.91024 -97.23851 812 ft 165 kts
2026-05-05 03:00 49.92181 -97.23611 1456 ft 167 kts
2026-05-05 03:00 49.92945 -97.23447 2027 ft 167 kts
2026-05-05 03:00 49.94114 -97.23207 2758 ft 176 kts
2026-05-05 03:01 49.95416 -97.22889 3084 ft 204 kts
2026-05-05 03:01 49.96915 -97.22514 3507 ft 227 kts
2026-05-05 03:01 49.98516 -97.22125 4289 ft 238 kts
2026-05-05 03:01 50.00584 -97.20884 5270 ft 257 kts 39°
2026-05-05 03:02 50.01322 -97.19374 5939 ft 265 kts 59°
2026-05-05 03:02 50.01818 -97.16572 6867 ft 276 kts 82°
2026-05-05 03:02 50.01589 -97.13603 7587 ft 287 kts 101°
2026-05-05 03:02 50.01040 -97.10562 8337 ft 296 kts 103°
2026-05-05 03:03 50.00451 -97.07474 9267 ft 299 kts 103°
2026-05-05 03:03 49.99854 -97.04354 10119 ft 304 kts 103°
2026-05-05 03:03 49.99245 -97.01139 10713 ft 320 kts 103°
2026-05-05 03:03 49.98599 -96.97669 10954 ft 349 kts 103°
2026-05-05 03:04 49.97900 -96.93895 11232 ft 376 kts 103°
2026-05-05 03:04 49.97168 -96.89946 12099 ft 385 kts 104°
2026-05-05 03:04 49.96423 -96.85923 13250 ft 389 kts 104°
2026-05-05 03:04 49.95675 -96.81881 14405 ft 391 kts 104°
2026-05-05 03:05 49.94931 -96.77863 15469 ft 394 kts 104°
2026-05-05 03:05 49.94251 -96.73733 16477 ft 397 kts 98°
2026-05-05 03:05 49.93861 -96.69477 17484 ft 400 kts 92°
2026-05-05 03:05 49.93773 -96.65158 18443 ft 402 kts 88°
2026-05-05 03:06 49.93760 -96.60796 19315 ft 406 kts 88°
2026-05-05 03:06 49.93748 -96.56387 20216 ft 409 kts 88°
2026-05-05 03:06 49.93725 -96.51959 21102 ft 413 kts 88°
2026-05-05 03:06 49.93691 -96.47544 21947 ft 416 kts 88°
2026-05-05 03:07 49.93649 -96.43027 22776 ft 421 kts 89°
2026-05-05 03:07 49.93603 -96.38471 23555 ft 425 kts 89°
2026-05-05 03:07 49.93560 -96.33857 24167 ft 430 kts 89°
2026-05-05 03:07 49.93521 -96.29177 24682 ft 438 kts 89°
2026-05-05 03:08 49.93483 -96.24411 25185 ft 445 kts 89°
2026-05-05 03:08 49.93442 -96.19577 25699 ft 451 kts 89°
2026-05-05 03:08 49.93398 -96.14674 26222 ft 457 kts 89°
2026-05-05 03:08 49.93351 -96.09700 26731 ft 463 kts 89°
2026-05-05 03:09 49.93300 -96.04662 27215 ft 470 kts 89°
2026-05-05 03:09 49.93248 -95.99763 27686 ft 475 kts 89°
2026-05-05 03:09 49.93191 -95.94644 28142 ft 481 kts 89°
2026-05-05 03:09 49.93131 -95.89430 28597 ft 487 kts 89°
2026-05-05 03:10 49.93068 -95.84146 29001 ft 493 kts 89°
2026-05-05 03:10 49.93001 -95.78804 29402 ft 497 kts 89°
2026-05-05 03:10 49.92932 -95.73406 29808 ft 502 kts 89°
2026-05-05 03:10 49.92859 -95.67979 30214 ft 504 kts 89°
2026-05-05 03:11 49.92784 -95.62545 30675 ft 504 kts 89°
2026-05-05 03:11 49.92706 -95.57111 31157 ft 504 kts 89°
2026-05-05 03:11 49.92626 -95.51655 31597 ft 505 kts 89°
2026-05-05 03:11 49.92545 -95.46211 32020 ft 506 kts 90°
2026-05-05 03:12 49.92458 -95.40736 32441 ft 507 kts 90°
2026-05-05 03:12 49.92364 -95.35325 32858 ft 508 kts 90°
2026-05-05 03:12 49.92262 -95.29844 33284 ft 509 kts 90°
2026-05-05 03:12 49.92158 -95.24349 33685 ft 510 kts 90°
2026-05-05 03:13 49.92052 -95.18848 34048 ft 511 kts 90°
2026-05-05 03:13 49.91944 -95.13343 34412 ft 510 kts 90°
2026-05-05 03:13 49.91835 -95.07847 34766 ft 510 kts 90°
2026-05-05 03:13 49.91724 -95.02340 35117 ft 510 kts 90°
2026-05-05 03:14 49.91495 -94.97044 35440 ft 511 kts 96°
2026-05-05 03:14 49.90883 -94.91606 35763 ft 512 kts 102°
2026-05-05 03:14 49.89980 -94.86340 36086 ft 512 kts 107°
2026-05-05 03:14 49.88742 -94.81164 36393 ft 513 kts 112°
2026-05-05 03:15 49.87355 -94.76076 36708 ft 513 kts 113°
2026-05-05 03:15 49.84483 -94.65821 36754 ft 521 kts 113°
2026-05-05 03:16 49.81617 -94.55542 36744 ft 516 kts 113°
2026-05-05 03:16 49.78830 -94.45442 36754 ft 513 kts 113°
2026-05-05 03:17 49.76036 -94.35298 36748 ft 512 kts 113°
2026-05-05 03:17 49.73237 -94.25182 36753 ft 512 kts 113°
2026-05-05 03:18 49.70423 -94.15064 36757 ft 513 kts 113°
2026-05-05 03:18 49.67614 -94.05012 36761 ft 514 kts 113°
2026-05-05 03:19 49.63374 -93.89922 36859 ft 520 kts 114°
2026-05-05 03:19 49.61931 -93.84806 37168 ft 520 kts 114°
2026-05-05 03:19 49.60488 -93.79704 37524 ft 518 kts 114°
2026-05-05 03:20 49.59047 -93.74617 37863 ft 517 kts 114°
2026-05-05 03:20 49.57607 -93.69548 38172 ft 517 kts 114°
2026-05-05 03:20 49.56164 -93.64475 38437 ft 517 kts 114°
2026-05-05 03:20 49.54718 -93.59405 38647 ft 518 kts 114°
2026-05-05 03:21 49.51844 -93.49357 38706 ft 512 kts 114°
2026-05-05 03:21 49.48989 -93.39420 38722 ft 506 kts 114°
2026-05-05 03:22 49.46136 -93.29531 38717 ft 505 kts 114°
2026-05-05 03:22 49.43280 -93.19671 38730 ft 505 kts 114°
2026-05-05 03:23 49.40428 -93.09863 38750 ft 507 kts 115°
2026-05-05 03:23 49.37542 -92.99982 38736 ft 508 kts 115°
2026-05-05 03:24 49.34691 -92.90259 38729 ft 510 kts 115°
2026-05-05 03:24 49.31773 -92.80349 38726 ft 510 kts 115°
2026-05-05 03:25 49.28864 -92.70504 38718 ft 511 kts 115°
2026-05-05 03:25 49.25926 -92.60606 38705 ft 511 kts 115°
2026-05-05 03:26 49.22979 -92.50718 38714 ft 510 kts 116°
2026-05-05 03:26 49.20031 -92.40867 38705 ft 509 kts 116°
2026-05-05 03:27 49.17075 -92.31025 38703 ft 509 kts 116°
2026-05-05 03:27 49.14134 -92.21276 38701 ft 508 kts 116°
2026-05-05 03:28 49.11171 -92.11491 38689 ft 508 kts 116°
2026-05-05 03:28 49.08199 -92.01717 38697 ft 507 kts 116°
2026-05-05 03:29 49.05280 -91.92154 38666 ft 507 kts 116°
2026-05-05 03:29 49.02319 -91.82492 38683 ft 507 kts 116°
2026-05-05 03:30 48.99330 -91.72774 38680 ft 508 kts 117°
2026-05-05 03:30 48.96322 -91.63036 38680 ft 508 kts 117°
2026-05-05 03:31 48.93305 -91.53307 38668 ft 509 kts 117°
2026-05-05 03:31 48.90299 -91.43649 38669 ft 509 kts 117°
2026-05-05 03:32 48.87262 -91.33933 38659 ft 509 kts 117°
2026-05-05 03:32 48.84215 -91.24219 38663 ft 510 kts 117°
2026-05-05 03:33 48.81159 -91.14512 38652 ft 509 kts 117°
2026-05-05 03:33 48.78095 -91.04821 38654 ft 509 kts 117°
2026-05-05 03:34 48.75118 -90.95441 38652 ft 509 kts 117°
2026-05-05 03:34 48.72039 -90.85776 38633 ft 509 kts 117°
2026-05-05 03:35 48.68952 -90.76124 38637 ft 509 kts 117°
2026-05-05 03:35 48.65857 -90.66482 38633 ft 510 kts 118°
2026-05-05 03:36 48.62767 -90.56896 38627 ft 511 kts 118°
2026-05-05 03:36 48.59638 -90.47224 38630 ft 513 kts 118°
2026-05-05 03:37 48.56493 -90.37539 38637 ft 514 kts 118°
2026-05-05 03:37 48.53352 -90.27900 38626 ft 516 kts 118°
2026-05-05 03:38 48.50179 -90.18203 38622 ft 516 kts 118°
2026-05-05 03:38 48.46992 -90.08500 38617 ft 516 kts 118°
2026-05-05 03:39 48.43865 -89.99014 38607 ft 516 kts 118°
2026-05-05 03:39 48.40671 -89.89360 38603 ft 514 kts 118°
2026-05-05 03:40 48.37498 -89.79808 38604 ft 513 kts 119°
2026-05-05 03:40 48.34307 -89.70236 38603 ft 512 kts 119°
2026-05-05 03:41 48.31111 -89.60687 38607 ft 511 kts 119°
2026-05-05 03:41 48.27915 -89.51164 38599 ft 510 kts 119°
2026-05-05 03:42 48.24765 -89.41621 38603 ft 511 kts 116°
2026-05-05 03:42 48.21962 -89.31882 38583 ft 512 kts 115°
2026-05-05 03:43 48.19194 -89.22036 38595 ft 514 kts 115°
2026-05-05 03:43 48.16392 -89.12166 38601 ft 516 kts 115°
2026-05-05 03:44 48.13551 -89.02274 38598 ft 518 kts 116°
2026-05-05 03:44 48.10766 -88.92645 38595 ft 520 kts 116°
2026-05-05 03:45 48.07882 -88.82715 38588 ft 521 kts 116°
2026-05-05 03:45 48.04987 -88.72778 38587 ft 521 kts 116°
2026-05-05 03:46 48.02084 -88.62854 38581 ft 521 kts 116°
2026-05-05 03:46 47.99198 -88.53029 38567 ft 520 kts 116°
2026-05-05 03:47 47.96285 -88.43149 38577 ft 520 kts 116°
2026-05-05 03:47 47.93369 -88.33302 38580 ft 519 kts 116°
2026-05-05 03:48 47.90443 -88.23460 38573 ft 519 kts 116°
2026-05-05 03:48 47.87509 -88.13631 38576 ft 519 kts 117°
2026-05-05 03:49 47.84586 -88.03878 38576 ft 519 kts 117°
2026-05-05 03:49 47.81700 -87.94284 38569 ft 519 kts 117°
2026-05-05 03:50 47.78737 -87.84477 38567 ft 520 kts 117°
2026-05-05 03:50 47.75767 -87.74679 38569 ft 520 kts 117°
2026-05-05 03:51 47.72805 -87.64951 38554 ft 520 kts 117°
2026-05-05 03:51 47.69814 -87.55163 38568 ft 521 kts 117°
2026-05-05 03:52 47.66812 -87.45380 38562 ft 521 kts 117°
2026-05-05 03:52 47.63798 -87.35597 38562 ft 521 kts 117°
2026-05-05 03:53 47.60779 -87.25831 38563 ft 521 kts 117°
2026-05-05 03:53 47.57771 -87.16143 38566 ft 521 kts 117°
2026-05-05 03:54 47.54735 -87.06399 38544 ft 521 kts 117°
2026-05-05 03:54 47.51737 -86.96816 38555 ft 520 kts 117°
2026-05-05 03:55 47.48707 -86.87169 38564 ft 520 kts 118°
2026-05-05 03:55 47.45652 -86.77477 38563 ft 520 kts 118°
2026-05-05 03:56 47.42587 -86.67792 38565 ft 520 kts 118°
2026-05-05 03:56 47.39516 -86.58123 38567 ft 520 kts 118°
2026-05-05 03:57 47.36437 -86.48467 38564 ft 520 kts 118°
2026-05-05 03:57 47.33373 -86.38896 38568 ft 520 kts 118°
2026-05-05 03:58 47.30280 -86.29270 38556 ft 519 kts 118°
2026-05-05 03:58 47.27183 -86.19665 38557 ft 519 kts 118°
2026-05-05 03:59 47.24080 -86.10080 38562 ft 519 kts 118°
2026-05-05 03:59 47.20991 -86.00574 38552 ft 518 kts 118°
2026-05-05 04:00 47.17953 -85.91257 38555 ft 518 kts 119°
2026-05-05 04:00 47.14828 -85.81710 38538 ft 518 kts 119°
2026-05-05 04:01 47.11698 -85.72184 38553 ft 518 kts 119°
2026-05-05 04:01 47.08576 -85.62716 38557 ft 518 kts 119°
2026-05-05 04:02 47.05427 -85.53203 38561 ft 519 kts 119°
2026-05-05 04:02 47.02265 -85.43683 38567 ft 520 kts 119°
2026-05-05 04:03 46.99097 -85.34180 38570 ft 520 kts 119°
2026-05-05 04:03 46.95910 -85.24658 38576 ft 521 kts 120°
2026-05-05 04:04 46.92737 -85.15211 38575 ft 521 kts 120°
2026-05-05 04:04 46.89537 -85.05717 38566 ft 520 kts 120°
2026-05-05 04:05 46.86380 -84.96384 38574 ft 520 kts 120°
2026-05-05 04:05 46.83192 -84.86994 38579 ft 519 kts 120°
2026-05-05 04:06 46.79975 -84.77552 38586 ft 520 kts 120°
2026-05-05 04:06 46.76744 -84.68106 38572 ft 520 kts 120°
2026-05-05 04:07 46.73514 -84.58693 38573 ft 519 kts 120°
2026-05-05 04:07 46.70277 -84.49295 38572 ft 518 kts 120°
2026-05-05 04:08 46.67059 -84.39983 38574 ft 518 kts 120°
2026-05-05 04:08 46.63812 -84.30623 38552 ft 517 kts 120°
2026-05-05 04:09 46.60575 -84.21324 38565 ft 515 kts 120°
2026-05-05 04:09 46.57332 -84.12040 38566 ft 514 kts 120°
2026-05-05 04:10 46.54109 -84.02847 38569 ft 513 kts 120°
2026-05-05 04:10 46.50907 -83.93744 38549 ft 513 kts 121°
2026-05-05 04:11 46.47658 -83.84539 38560 ft 512 kts 121°
2026-05-05 04:11 46.44406 -83.75355 38571 ft 512 kts 121°
2026-05-05 04:12 46.41165 -83.66231 38575 ft 513 kts 121°
2026-05-05 04:12 46.37525 -83.57403 38544 ft 508 kts 130°
2026-05-05 04:13 46.33332 -83.49201 38569 ft 507 kts 132°
2026-05-05 04:13 46.29136 -83.41000 38572 ft 508 kts 131°
2026-05-05 04:14 46.25016 -83.32690 38572 ft 509 kts 130°
2026-05-05 04:14 46.20941 -83.24402 38570 ft 509 kts 130°
2026-05-05 04:15 46.16825 -83.16076 38564 ft 509 kts 131°
2026-05-05 04:15 46.12709 -83.07785 38563 ft 509 kts 132°
2026-05-05 04:16 46.08670 -82.99683 38574 ft 509 kts 132°
2026-05-05 04:16 46.04558 -82.91466 38554 ft 510 kts 132°
2026-05-05 04:17 46.00409 -82.83195 38545 ft 510 kts 132°
2026-05-05 04:17 45.96250 -82.74925 38542 ft 511 kts 132°
2026-05-05 04:18 45.92072 -82.66638 38518 ft 513 kts 132°
2026-05-05 04:18 45.87910 -82.58405 38532 ft 513 kts 132°
2026-05-05 04:19 45.83706 -82.50115 38521 ft 514 kts 132°
2026-05-05 04:19 45.79490 -82.41835 38562 ft 514 kts 132°
2026-05-05 04:20 45.75273 -82.33575 38568 ft 514 kts 132°
2026-05-05 04:20 45.71051 -82.25325 38559 ft 513 kts 132°
2026-05-05 04:21 45.66869 -82.17172 38555 ft 511 kts 133°
2026-05-05 04:21 45.62665 -82.09006 38551 ft 509 kts 132°
2026-05-05 04:22 45.58066 -82.01498 38562 ft 497 kts 143°
2026-05-05 04:22 45.53036 -81.95042 38563 ft 496 kts 145°
2026-05-05 04:23 45.47934 -81.88501 38539 ft 498 kts 144°
2026-05-05 04:23 45.42856 -81.81773 38551 ft 499 kts 144°
2026-05-05 04:24 45.37794 -81.75009 38558 ft 500 kts 144°
2026-05-05 04:25 45.30206 -81.64927 38555 ft 500 kts 144°
2026-05-05 04:25 45.25115 -81.58194 38534 ft 500 kts 144°
2026-05-05 04:25 45.22555 -81.54821 38174 ft 507 kts 144°
2026-05-05 04:26 45.19954 -81.51403 37382 ft 510 kts 144°
2026-05-05 04:26 45.17363 -81.47994 36668 ft 507 kts 144°
2026-05-05 04:26 45.14788 -81.44603 35965 ft 504 kts 144°
2026-05-05 04:26 45.12220 -81.41226 35235 ft 503 kts 144°
2026-05-05 04:27 45.09789 -81.38038 34462 ft 505 kts 144°
2026-05-05 04:27 45.07202 -81.34652 33666 ft 506 kts 145°
2026-05-05 04:27 45.04630 -81.31285 33013 ft 502 kts 144°
2026-05-05 04:27 45.02079 -81.27948 32454 ft 497 kts 145°
2026-05-05 04:28 44.99557 -81.24652 31915 ft 492 kts 145°
2026-05-05 04:28 44.97056 -81.21389 31367 ft 488 kts 145°
2026-05-05 04:28 44.94567 -81.18149 30808 ft 484 kts 145°
2026-05-05 04:28 44.92105 -81.14950 30305 ft 479 kts 145°
2026-05-05 04:29 44.89659 -81.11773 29787 ft 476 kts 145°
2026-05-05 04:29 44.87263 -81.08668 29215 ft 473 kts 145°
2026-05-05 04:29 44.84852 -81.05547 28640 ft 469 kts 145°
2026-05-05 04:29 44.82465 -81.02458 28107 ft 464 kts 145°
2026-05-05 04:30 44.80200 -80.99530 27594 ft 460 kts 145°
2026-05-05 04:30 44.77854 -80.96503 27082 ft 456 kts 145°
2026-05-05 04:30 44.75523 -80.93498 26565 ft 453 kts 145°
2026-05-05 04:30 44.73204 -80.90514 26043 ft 450 kts 145°
2026-05-05 04:31 44.70908 -80.87561 25509 ft 447 kts 145°
2026-05-05 04:31 44.68650 -80.84661 25018 ft 444 kts 145°
2026-05-05 04:31 44.66380 -80.81747 24530 ft 441 kts 145°
2026-05-05 04:31 44.64120 -80.78848 24026 ft 439 kts 145°
2026-05-05 04:32 44.61872 -80.75969 23528 ft 437 kts 145°
2026-05-05 04:32 44.59632 -80.73104 23017 ft 435 kts 145°
2026-05-05 04:32 44.57404 -80.70259 22456 ft 432 kts 145°
2026-05-05 04:32 44.55187 -80.67431 21936 ft 429 kts 145°
2026-05-05 04:33 44.52990 -80.64629 21434 ft 426 kts 144°
2026-05-05 04:33 44.50834 -80.61883 20952 ft 423 kts 144°
2026-05-05 04:33 44.48669 -80.59128 20476 ft 419 kts 144°
2026-05-05 04:33 44.46515 -80.56390 19992 ft 417 kts 144°
2026-05-05 04:34 44.44376 -80.53674 19504 ft 414 kts 144°
2026-05-05 04:34 44.42251 -80.50976 19034 ft 411 kts 144°
2026-05-05 04:34 44.40134 -80.48296 18557 ft 409 kts 144°
2026-05-05 04:34 44.38033 -80.45638 18100 ft 407 kts 144°
2026-05-05 04:35 44.35936 -80.42988 17593 ft 405 kts 144°
2026-05-05 04:35 44.33849 -80.40352 17067 ft 403 kts 144°
2026-05-05 04:35 44.31806 -80.37772 16670 ft 400 kts 144°
2026-05-05 04:35 44.29756 -80.35186 16419 ft 394 kts 144°
2026-05-05 04:36 44.27730 -80.32633 16021 ft 392 kts 144°
2026-05-05 04:36 44.25712 -80.30094 15542 ft 389 kts 143°
2026-05-05 04:36 44.23712 -80.27580 15084 ft 386 kts 143°
2026-05-05 04:36 44.21741 -80.25104 14633 ft 383 kts 143°
2026-05-05 04:37 44.19775 -80.22636 14173 ft 380 kts 143°
2026-05-05 04:37 44.17815 -80.20180 13711 ft 377 kts 143°
2026-05-05 04:37 44.15868 -80.17739 13259 ft 375 kts 143°
2026-05-05 04:37 44.13961 -80.15346 12754 ft 373 kts 143°
2026-05-05 04:38 44.12041 -80.12939 12283 ft 370 kts 143°
2026-05-05 04:38 44.10136 -80.10553 11835 ft 367 kts 143°
2026-05-05 04:38 44.08245 -80.08187 11407 ft 364 kts 143°
2026-05-05 04:38 44.06398 -80.05871 11269 ft 352 kts 143°
2026-05-05 04:39 44.04603 -80.03626 11118 ft 341 kts 143°
2026-05-05 04:39 44.02862 -80.01456 10967 ft 332 kts 143°
2026-05-05 04:39 44.01216 -79.99476 10751 ft 323 kts 148°
2026-05-05 04:39 43.99409 -79.97760 10387 ft 307 kts 154°
2026-05-05 04:40 43.97658 -79.96269 10103 ft 294 kts 156°
2026-05-05 04:40 43.95940 -79.94818 10010 ft 284 kts 156°
2026-05-05 04:40 43.94263 -79.93388 9719 ft 283 kts 156°
2026-05-05 04:40 43.92593 -79.91947 9415 ft 282 kts 155°
2026-05-05 04:41 43.90942 -79.90504 9079 ft 280 kts 155°
2026-05-05 04:41 43.89303 -79.89063 8781 ft 277 kts 155°
2026-05-05 04:41 43.87702 -79.87647 8663 ft 268 kts 155°
2026-05-05 04:41 43.86157 -79.86280 8526 ft 259 kts 155°
2026-05-05 04:42 43.84684 -79.84975 8403 ft 251 kts 154°
2026-05-05 04:42 43.83344 -79.83440 8212 ft 250 kts 144°
2026-05-05 04:42 43.82084 -79.81725 7976 ft 258 kts 143°
2026-05-05 04:42 43.80788 -79.79966 7683 ft 263 kts 143°
2026-05-05 04:43 43.79484 -79.78222 7372 ft 262 kts 144°
2026-05-05 04:43 43.78167 -79.76479 7065 ft 262 kts 144°
2026-05-05 04:43 43.76929 -79.74635 6730 ft 265 kts 128°
2026-05-05 04:43 43.76369 -79.72191 6460 ft 276 kts 95°
2026-05-05 04:44 43.76794 -79.69620 6160 ft 277 kts 58°
2026-05-05 04:44 43.77986 -79.67658 6097 ft 269 kts 44°
2026-05-05 04:44 43.79297 -79.65793 6059 ft 272 kts 44°
2026-05-05 04:44 43.80614 -79.63900 5847 ft 274 kts 44°
2026-05-05 04:45 43.81918 -79.62017 5649 ft 268 kts 44°
2026-05-05 04:45 43.83191 -79.60172 5524 ft 262 kts 44°
2026-05-05 04:45 43.84447 -79.58346 5408 ft 262 kts 44°
2026-05-05 04:45 43.85714 -79.56502 5319 ft 267 kts 44°
2026-05-05 04:46 43.87006 -79.54619 5204 ft 271 kts 44°
2026-05-05 04:46 43.88285 -79.52749 5108 ft 270 kts 44°
2026-05-05 04:46 43.89576 -79.50861 4958 ft 269 kts 43°
2026-05-05 04:46 43.90762 -79.48858 4566 ft 274 kts 65°
2026-05-05 04:47 43.91076 -79.46324 4230 ft 261 kts 108°
2026-05-05 04:47 43.90382 -79.44186 4077 ft 233 kts 142°
2026-05-05 04:47 43.89200 -79.42786 3950 ft 219 kts 161°
2026-05-05 04:47 43.87911 -79.41640 3780 ft 228 kts 149°
2026-05-05 04:48 43.86706 -79.40311 3659 ft 219 kts 166°
2026-05-05 04:48 43.85325 -79.40020 3576 ft 191 kts 202°
2026-05-05 04:48 43.84279 -79.40922 3506 ft 175 kts 234°
2026-05-05 04:48 43.83586 -79.42302 3440 ft 177 kts 234°
2026-05-05 04:49 43.82844 -79.43682 3341 ft 178 kts 233°
2026-05-05 04:49 43.82058 -79.45002 3197 ft 176 kts 230°
2026-05-05 04:49 43.81241 -79.46253 3110 ft 174 kts 229°
2026-05-05 04:49 43.80427 -79.47458 3080 ft 169 kts 228°
2026-05-05 04:50 43.79634 -79.48619 3011 ft 165 kts 228°
2026-05-05 04:50 43.78889 -79.49706 3019 ft 145 kts 229°
2026-05-05 04:50 43.78232 -79.50663 3025 ft 132 kts 229°
2026-05-05 04:50 43.77608 -79.51574 2873 ft 125 kts 229°
2026-05-05 04:51 43.77043 -79.52399 2730 ft 110 kts 228°
2026-05-05 04:51 43.76540 -79.53132 2589 ft 102 kts 228°
2026-05-05 04:51 43.76047 -79.53851 2476 ft 104 kts 227°
2026-05-05 04:51 43.75547 -79.54579 2327 ft 105 kts 227°
2026-05-05 04:52 43.75053 -79.55299 2182 ft 106 kts 225°
2026-05-05 04:52 43.74544 -79.56040 2035 ft 104 kts 226°
2026-05-05 04:52 43.74039 -79.56777 1868 ft 107 kts 225°
2026-05-05 04:52 43.73532 -79.57511 1750 ft 106 kts 224°
2026-05-05 04:53 43.73012 -79.58269 1610 ft 109 kts 225°
2026-05-05 04:53 43.72485 -79.59036 1465 ft 113 kts 224°
2026-05-05 04:53 43.71914 -79.59868 1339 ft 124 kts 224°
2026-05-05 04:53 43.71293 -79.60771 1156 ft 132 kts 224°
2026-05-05 04:54 43.70673 -79.61673 960 ft 130 kts 226°
2026-05-05 04:54 43.70049 -79.62581 795 ft 132 kts 225°
2026-05-05 04:54 43.69417 -79.63512 631 ft 134 kts 226°
2026-05-05 04:54 43.68800 -79.64409 574 ft 119 kts 225°
2026-05-05 04:55 43.68221 -79.65228 575 ft 108 kts 225°
2026-05-05 04:55 43.67838 -79.65785 573 ft 35 kts 226°
2026-05-05 04:55 43.67674 -79.66025 577 ft 18 kts 226°
2026-05-05 04:55 43.67602 -79.66130 577 ft 18 kts 226°
2026-05-05 04:56 43.67519 -79.66250 571 ft 14 kts 226°
2026-05-05 04:56 43.67432 -79.66272 571 ft 14 kts 158°
2026-05-05 04:56 43.67349 -79.66195 572 ft 14 kts 131°
2026-05-05 04:56 43.67368 -79.66071 578 ft 14 kts 51°
2026-05-05 04:57 43.67437 -79.65971 579 ft 14 kts 46°
2026-05-05 04:57 43.67506 -79.65871 579 ft 14 kts 46°
2026-05-05 04:57 43.67576 -79.65772 578 ft 14 kts 46°
2026-05-05 04:57 43.67647 -79.65670 579 ft 16 kts 46°
2026-05-05 04:58 43.67726 -79.65557 578 ft 17 kts 46°
2026-05-05 04:58 43.67807 -79.65440 574 ft 18 kts 47°
2026-05-05 04:58 43.67894 -79.65307 572 ft 19 kts 48°
2026-05-05 04:58 43.67980 -79.65181 573 ft 17 kts 46°
2026-05-05 04:59 43.68064 -79.65060 578 ft 17 kts 46°
2026-05-05 04:59 43.68147 -79.64939 580 ft 17 kts 46°
2026-05-05 04:59 43.68230 -79.64819 581 ft 17 kts 46°
2026-05-05 04:59 43.68314 -79.64697 581 ft 18 kts 46°
2026-05-05 05:00 43.68409 -79.64560 575 ft 20 kts 46°
2026-05-05 05:00 43.68497 -79.64432 575 ft 18 kts 46°
2026-05-05 05:00 43.68587 -79.64302 577 ft 19 kts 46°
2026-05-05 05:00 43.68677 -79.64171 578 ft 19 kts 46°
2026-05-05 05:01 43.68768 -79.64040 577 ft 19 kts 46°
2026-05-05 05:01 43.68858 -79.63909 582 ft 19 kts 46°
2026-05-05 05:01 43.68948 -79.63778 579 ft 19 kts 46°
2026-05-05 05:01 43.69037 -79.63648 578 ft 18 kts 46°
2026-05-05 05:02 43.69053 -79.63504 571 ft 17 kts 126°
2026-05-05 05:02 43.68973 -79.63393 576 ft 17 kts 136°
2026-05-05 05:02 43.68890 -79.63283 573 ft 17 kts 136°
2026-05-05 05:02 43.68807 -79.63173 573 ft 17 kts 136°
2026-05-05 05:03 43.68724 -79.63063 574 ft 17 kts 136°
2026-05-05 05:03 43.68640 -79.62954 571 ft 17 kts 139°
2026-05-05 05:03 43.68555 -79.62848 573 ft 17 kts 137°
2026-05-05 05:03 43.68471 -79.62739 569 ft 17 kts 137°
2026-05-05 05:04 43.68387 -79.62630 574 ft 16 kts 136°
2026-05-05 05:04 43.68307 -79.62525 574 ft 15 kts 137°
2026-05-05 05:04 43.68280 -79.62398 569 ft 15 kts 79°
2026-05-05 05:04 43.68313 -79.62291 575 ft 12 kts 55°
2026-05-05 05:05 43.68322 -79.62184 570 ft 10 kts 108°
2026-05-05 05:05 43.68312 -79.62148 574 ft 0 kts 110°